ONEWEB-0328 (49197 NORAD) Tracking and Keplerian Element Data

This shows tracking and keplerian element data for the satellite.

Feedback or suggestion? Click here.




ElementValue
Catalog49197
NameONEWEB-0328
Epoch Orbit361
Epoch Day287.91667824
Epoch Year2021
RAAN317.5577
Inclination87.2184
Eccentricity0.0018055
Argument of Perigee191.1429
Mean Anonmoly196.4034
Mean Motion14.93104157
Decay Rate-0.01309239
L11 49197U 21083M 21287.91667824 -.01309239 00000-0 -13605+0 0 9990
L22 49197 87.2184 317.5577 0018055 191.1429 196.4034 14.93104157 3615

Live tracking and technical data element details for ONEWEB-0328 (NORAD 49197). ONEWEB-0328 can be tracked NOW for your location showing map with azimuth and elevation plus other details from your city location.

Track the satellite on the map from your city or location and see movement details for azimuth, elevation, latitude, longitude, range, height, and movement on the map or in text.







IsCatalogInMostPopularTable: catalog: 49197, numindb: 7
Update: records affected: 1



GetName: 49197 ONEWEB-0328

Hit Count: updated at: Tue, 19 Oct 2021 09:12:24 GMT